• In Österreich
  • Länderverzeichnis
  • Für 7 Tage
  • Wassertemperatur
  • Satellitenkarten
  • Wetterkarte
  • News
  • Widgets
  • user-avatar
    Anmelden

    Stündliche Wetter Campeche

    Heute, 22 Januar, Montag

    Zeit Temperatur Niederschläge Wind Luftdruck Luftfeuchtigkeit
    00:00 +24°C° 0 mm 1 m/S 758 mmHg 93%
    01:00 +24°C° 0 mm 1 m/S 757 mmHg 94%
    02:00 +24°C° 0 mm 1 m/S 757 mmHg 95%
    03:00 +24°C° 0 mm 1 m/S 757 mmHg 96%
    04:00 +24°C° 0 mm 1 m/S 757 mmHg 96%
    05:00 +24°C° 0 mm 1 m/S 758 mmHg 95%
    06:00 +24°C° 0 mm 1 m/S 758 mmHg 94%
    07:00 +25°C° 0 mm 1 m/S 758 mmHg 88%
    08:00 +26°C° 0 mm 2 m/S 759 mmHg 82%
    09:00 +27°C° 0 mm 2 m/S 759 mmHg 76%
    10:00 +29°C° 0 mm 2 m/S 759 mmHg 68%
    11:00 +31°C° 0 mm 2 m/S 758 mmHg 61%
    12:00 +34°C° 0 mm 2 m/S 758 mmHg 53%
    13:00 +34°C° 0,1 mm 2 m/S 757 mmHg 53%
    14:00 +34°C° 0,1 mm 2 m/S 757 mmHg 52%
    15:00 +34°C° 0,1 mm 1 m/S 756 mmHg 52%
    16:00 +31°C° 0,4 mm 1 m/S 756 mmHg 63%
    17:00 +29°C° 0,4 mm 1 m/S 756 mmHg 74%
    18:00 +27°C° 0,4 mm 1 m/S 757 mmHg 84%
    19:00 +26°C° 0,3 mm 1 m/S 757 mmHg 88%
    20:00 +25°C° 0,3 mm 1 m/S 758 mmHg 92%
    21:00 +24°C° 0,3 mm 1 m/S 758 mmHg 95%
    22:00 +24°C° 0 mm 1 m/S 758 mmHg 96%
    23:00 +23°C° 0 mm 1 m/S 759 mmHg 97%

    Morgen, 23 Januar, Dienstag

    Zeit Temperatur Niederschläge Wind Luftdruck Luftfeuchtigkeit
    00:00 +23°C° 0 mm 1 m/S 759 mmHg 98%
    01:00 +23°C° 0 mm 1 m/S 759 mmHg 98%
    02:00 +22°C° 0 mm 1 m/S 758 mmHg 99%
    03:00 +22°C° 0 mm 1 m/S 758 mmHg 99%
    04:00 +20°C° 0 mm 0 m/S 758 mmHg 99%
    05:00 +20°C° 0 mm 0 m/S 759 mmHg 99%
    06:00 +20°C° 0 mm 0 m/S 759 mmHg 99%
    07:00 +23°C° 0 mm 1 m/S 759 mmHg 95%
    08:00 +24°C° 0 mm 1 m/S 760 mmHg 90%
    09:00 +26°C° 0 mm 1 m/S 761 mmHg 86%
    10:00 +28°C° 0 mm 1 m/S 760 mmHg 74%
    11:00 +31°C° 0 mm 1 m/S 760 mmHg 61%
    12:00 +33°C° 0 mm 1 m/S 760 mmHg 49%
    13:00 +33°C° 0,2 mm 1 m/S 759 mmHg 52%
    14:00 +32°C° 0,2 mm 1 m/S 758 mmHg 55%
    15:00 +31°C° 0,2 mm 1 m/S 757 mmHg 58%
    16:00 +29°C° 0,8 mm 1 m/S 758 mmHg 69%
    17:00 +27°C° 0,8 mm 1 m/S 758 mmHg 79%
    18:00 +25°C° 0,8 mm 2 m/S 759 mmHg 90%
    19:00 +25°C° 0,2 mm 1 m/S 759 mmHg 92%
    20:00 +24°C° 0,2 mm 1 m/S 760 mmHg 94%
    21:00 +24°C° 0,2 mm 1 m/S 760 mmHg 96%
    22:00 +23°C° 0 mm 1 m/S 760 mmHg 97%
    23:00 +23°C° 0 mm 1 m/S 760 mmHg 97%

    übermorgen, 24 Januar, Mittwoch

    Zeit Temperatur Niederschläge Wind Luftdruck Luftfeuchtigkeit
    00:00 +23°C° 0 mm 1 m/S 760 mmHg 97%
    01:00 +23°C° 0 mm 1 m/S 760 mmHg 98%
    02:00 +23°C° 0 mm 1 m/S 760 mmHg 98%
    03:00 +22°C° 0 mm 1 m/S 760 mmHg 99%
    04:00 +22°C° 0 mm 1 m/S 760 mmHg 99%
    05:00 +22°C° 0 mm 1 m/S 760 mmHg 99%
    06:00 +22°C° 0 mm 1 m/S 760 mmHg 99%
    07:00 +23°C° 0 mm 1 m/S 761 mmHg 95%
    08:00 +24°C° 0 mm 1 m/S 762 mmHg 92%
    09:00 +25°C° 0 mm 2 m/S 762 mmHg 89%
    10:00 +27°C° 0 mm 1 m/S 762 mmHg 78%
    11:00 +29°C° 0 mm 1 m/S 762 mmHg 68%
    12:00 +30°C° 0 mm 1 m/S 761 mmHg 57%
    13:00 +31°C° 0,4 mm 1 m/S 760 mmHg 58%
    14:00 +31°C° 0,4 mm 1 m/S 760 mmHg 59%
    15:00 +31°C° 0,4 mm 1 m/S 759 mmHg 60%
    16:00 +29°C° 1,1 mm 1 m/S 759 mmHg 71%
    17:00 +26°C° 1,1 mm 1 m/S 760 mmHg 82%
    18:00 +24°C° 1,1 mm 2 m/S 760 mmHg 94%
    19:00 +24°C° 0,7 mm 2 m/S 761 mmHg 94%
    20:00 +23°C° 0,7 mm 2 m/S 762 mmHg 95%
    21:00 +23°C° 0,7 mm 2 m/S 762 mmHg 96%
    22:00 +23°C° 0,4 mm 2 m/S 762 mmHg 97%
    23:00 +23°C° 0,4 mm 2 m/S 762 mmHg 97%

    25 Januar, Donnerstag

    Zeit Temperatur Niederschläge Wind Luftdruck Luftfeuchtigkeit
    00:00 +23°C° 0,4 mm 2 m/S 762 mmHg 98%
    01:00 +23°C° 0,3 mm 2 m/S 762 mmHg 98%
    02:00 +23°C° 0,3 mm 2 m/S 762 mmHg 98%
    03:00 +23°C° 0,3 mm 2 m/S 761 mmHg 98%
    04:00 +23°C° 0,1 mm 2 m/S 762 mmHg 98%
    05:00 +23°C° 0,1 mm 2 m/S 762 mmHg 98%
    06:00 +23°C° 0,1 mm 1 m/S 762 mmHg 97%
    07:00 +23°C° 0 mm 2 m/S 762 mmHg 96%
    08:00 +23°C° 0 mm 2 m/S 763 mmHg 95%
    09:00 +24°C° 0 mm 2 m/S 763 mmHg 94%
    10:00 +25°C° 0,1 mm 2 m/S 763 mmHg 88%
    11:00 +26°C° 0,1 mm 2 m/S 763 mmHg 83%
    12:00 +27°C° 0,1 mm 2 m/S 762 mmHg 77%
    13:00 +27°C° 0,5 mm 2 m/S 762 mmHg 76%
    14:00 +28°C° 0,5 mm 2 m/S 761 mmHg 74%
    15:00 +28°C° 0,5 mm 2 m/S 760 mmHg 73%
    16:00 +27°C° 1,3 mm 2 m/S 760 mmHg 81%
    17:00 +25°C° 1,3 mm 1 m/S 760 mmHg 88%
    18:00 +24°C° 1,3 mm 1 m/S 761 mmHg 96%
    19:00 +23°C° 0,7 mm 1 m/S 761 mmHg 97%
    20:00 +23°C° 0,7 mm 1 m/S 761 mmHg 98%
    21:00 +23°C° 0,7 mm 1 m/S 762 mmHg 98%
    22:00 +23°C° 0,2 mm 1 m/S 762 mmHg 98%
    23:00 +22°C° 0,2 mm 1 m/S 762 mmHg 98%

    26 Januar, Freitag

    Zeit Temperatur Niederschläge Wind Luftdruck Luftfeuchtigkeit
    00:00 +22°C° 0,2 mm 1 m/S 761 mmHg 98%
    01:00 +22°C° 0,1 mm 1 m/S 761 mmHg 98%
    02:00 +22°C° 0,1 mm 1 m/S 761 mmHg 98%
    03:00 +23°C° 0,1 mm 1 m/S 760 mmHg 98%
    04:00 +23°C° 0 mm 1 m/S 761 mmHg 98%
    05:00 +23°C° 0 mm 1 m/S 761 mmHg 98%
    06:00 +23°C° 0 mm 1 m/S 761 mmHg 98%
    07:00 +23°C° 0,1 mm 1 m/S 761 mmHg 97%
    08:00 +23°C° 0,1 mm 2 m/S 762 mmHg 97%
    09:00 +23°C° 0,1 mm 2 m/S 762 mmHg 96%
    10:00 +24°C° 0,1 mm 2 m/S 762 mmHg 93%
    11:00 +25°C° 0,1 mm 2 m/S 762 mmHg 90%
    12:00 +25°C° 0,1 mm 2 m/S 761 mmHg 87%
    13:00 +25°C° 0,8 mm 2 m/S 761 mmHg 89%
    14:00 +25°C° 0,8 mm 2 m/S 760 mmHg 92%
    15:00 +24°C° 0,8 mm 1 m/S 759 mmHg 94%
    16:00 +24°C° 0,9 mm 1 m/S 759 mmHg 95%
    17:00 +24°C° 0,9 mm 1 m/S 759 mmHg 97%
    18:00 +23°C° 0,9 mm 1 m/S 760 mmHg 98%
    19:00 +23°C° 0,9 mm 1 m/S 760 mmHg 98%
    20:00 +23°C° 0,9 mm 1 m/S 760 mmHg 98%
    21:00 +23°C° 0,9 mm 1 m/S 761 mmHg 98%
    22:00 +23°C° 0,5 mm 1 m/S 760 mmHg 98%
    23:00 +23°C° 0,5 mm 1 m/S 760 mmHg 98%

    27 Januar, Samstag

    Zeit Temperatur Niederschläge Wind Luftdruck Luftfeuchtigkeit
    00:00 +23°C° 0,5 mm 1 m/S 760 mmHg 98%
    01:00 +23°C° 0,1 mm 1 m/S 759 mmHg 98%
    02:00 +23°C° 0,1 mm 1 m/S 759 mmHg 98%
    03:00 +23°C° 0,1 mm 1 m/S 759 mmHg 98%
    04:00 +23°C° 0 mm 1 m/S 759 mmHg 98%
    05:00 +23°C° 0 mm 1 m/S 759 mmHg 98%
    06:00 +23°C° 0 mm 1 m/S 759 mmHg 98%
    07:00 +24°C° 0 mm 1 m/S 760 mmHg 96%
    08:00 +24°C° 0 mm 2 m/S 760 mmHg 93%
    09:00 +25°C° 0 mm 2 m/S 760 mmHg 91%
    10:00 +27°C° 0,3 mm 2 m/S 760 mmHg 84%
    11:00 +28°C° 0,3 mm 2 m/S 760 mmHg 78%
    12:00 +29°C° 0,3 mm 2 m/S 759 mmHg 72%
    13:00 +29°C° 1,8 mm 2 m/S 758 mmHg 77%
    14:00 +28°C° 1,8 mm 1 m/S 758 mmHg 83%
    15:00 +28°C° 1,8 mm 1 m/S 757 mmHg 88%
    16:00 +27°C° 1,7 mm 1 m/S 757 mmHg 91%
    17:00 +26°C° 1,7 mm 1 m/S 758 mmHg 94%
    18:00 +24°C° 1,7 mm 1 m/S 758 mmHg 97%
    19:00 +24°C° 0 mm 1 m/S 758 mmHg 97%
    20:00 +24°C° 0 mm 1 m/S 759 mmHg 98%
    21:00 +23°C° 0 mm 1 m/S 759 mmHg 98%
    22:00 +23°C° 0 mm 1 m/S 759 mmHg 99%
    23:00 +23°C° 0 mm 1 m/S 759 mmHg 99%
    Mehr zeigen